sat.trackr.live / text

‹ back to catalog

STARLINK-4313

NORAD 53064 · 2022-077X

PAYLOAD ACTIVE UNKNOWN

§ Identity

Operator
Country
US
Launch date
2022-07-11
Launch site
AFWTR
Launch vehicle
Mass (kg)
RCS (m²)

Purposes: comms

External: N2YO · Heavens-Above · Gunter

§ Orbital elements

Epoch: 2026-05-25T01:37:10.403328Z

Period
95.64 min
Inclination
97.4478°
Eccentricity
0.0001290
Mean motion
15.05655867 rev/d
Perigee alt
548.6 km
Apogee alt
550.4 km
Semi-major
6,927.6 km
B*
-8.2084e-5
RAAN
326.1271°
Arg perigee
63.7759°
Mean anomaly
296.3601°
Rev number
21,247

§ Raw data

STARLINK-43131 53064U 22077X   26145.06748152 -.00001243  00000+0 -82084-4 0  99942 53064  97.4478 326.1271 0001290  63.7759 296.3601 15.05655867212471

JSON: /api/v1/satellites/53064 · /tle

For live sub-satellite position, see the globe view (requires WebGL).

§ Visibility from observer

Set your observer location to see the next 7 days of passes ≥ 10°. The values pass through the URL so the page stays shareable.

No JS? Fill the form by hand. The geolocation button needs JavaScript.